When you browse on this site, cookies collect data to enhance your experience and personalize the content and advertising you see.
Visit our Privacy Policy to learn more. By continuing to use the site, you agree to this use of cookies and data.

Hourly Weather Borohnovo

Today, 13 July, Monday

Time Temperature Precipitation Wind Pressure Humidity
00:00 +10°C° 0 mm 2 mps 756 mmHg 93%
01:00 +10°C° 0 mm 2 mps 756 mmHg 93%
02:00 +9°C° 0 mm 2 mps 756 mmHg 93%
03:00 +9°C° 0 mm 2 mps 756 mmHg 93%
04:00 +9°C° 0 mm 2 mps 756 mmHg 93%
05:00 +9°C° 0 mm 2 mps 756 mmHg 94%
06:00 +12°C° 0 mm 2 mps 756 mmHg 87%
07:00 +14°C° 0 mm 2 mps 756 mmHg 81%
08:00 +16°C° 0 mm 2 mps 756 mmHg 74%
09:00 +17°C° 0 mm 2 mps 755 mmHg 65%
10:00 +18°C° 0 mm 2 mps 755 mmHg 57%
11:00 +20°C° 0 mm 2 mps 755 mmHg 48%
12:00 +20°C° 0 mm 2 mps 755 mmHg 46%
13:00 +21°C° 0 mm 2 mps 754 mmHg 44%
14:00 +23°C° 0 mm 2 mps 754 mmHg 42%
15:00 +21°C° 0 mm 2 mps 754 mmHg 45%
16:00 +21°C° 0 mm 3 mps 754 mmHg 49%
17:00 +20°C° 0 mm 3 mps 753 mmHg 52%
18:00 +19°C° 0 mm 2 mps 753 mmHg 60%
19:00 +18°C° 0 mm 2 mps 754 mmHg 67%
20:00 +16°C° 0 mm 2 mps 754 mmHg 74%
21:00 +15°C° 0 mm 2 mps 754 mmHg 77%
22:00 +14°C° 0 mm 2 mps 754 mmHg 80%
23:00 +12°C° 0 mm 2 mps 754 mmHg 84%

Tomorrow, 14 July, Tuesday

Time Temperature Precipitation Wind Pressure Humidity
00:00 +12°C° 0 mm 2 mps 754 mmHg 86%
01:00 +10°C° 0 mm 2 mps 754 mmHg 88%
02:00 +10°C° 0 mm 2 mps 754 mmHg 90%
03:00 +10°C° 0 mm 2 mps 754 mmHg 89%
04:00 +10°C° 0 mm 2 mps 754 mmHg 88%
05:00 +11°C° 0 mm 1 mps 754 mmHg 88%
06:00 +13°C° 0 mm 2 mps 754 mmHg 80%
07:00 +15°C° 0 mm 2 mps 755 mmHg 72%
08:00 +17°C° 0 mm 2 mps 755 mmHg 64%
09:00 +18°C° 0 mm 2 mps 754 mmHg 58%
10:00 +19°C° 0 mm 2 mps 754 mmHg 52%
11:00 +21°C° 0 mm 2 mps 754 mmHg 46%
12:00 +21°C° 0 mm 2 mps 754 mmHg 46%
13:00 +21°C° 0 mm 2 mps 754 mmHg 45%
14:00 +21°C° 0 mm 2 mps 754 mmHg 45%
15:00 +21°C° 0 mm 2 mps 754 mmHg 46%
16:00 +21°C° 0 mm 2 mps 753 mmHg 48%
17:00 +21°C° 0 mm 2 mps 753 mmHg 49%
18:00 +19°C° 0 mm 2 mps 753 mmHg 57%
19:00 +18°C° 0 mm 2 mps 753 mmHg 65%
20:00 +16°C° 0 mm 2 mps 753 mmHg 72%
21:00 +15°C° 0 mm 2 mps 753 mmHg 73%
22:00 +14°C° 0 mm 2 mps 753 mmHg 73%
23:00 +13°C° 0 mm 2 mps 753 mmHg 74%

Day after tomorrow, 15 July, Wednesday

Time Temperature Precipitation Wind Pressure Humidity
00:00 +12°C° 0 mm 2 mps 753 mmHg 74%
01:00 +12°C° 0 mm 1 mps 753 mmHg 74%
02:00 +11°C° 0 mm 1 mps 753 mmHg 74%
03:00 +11°C° 0 mm 1 mps 753 mmHg 74%
04:00 +11°C° 0 mm 1 mps 753 mmHg 74%
05:00 +11°C° 0 mm 1 mps 753 mmHg 74%
06:00 +13°C° 0 mm 2 mps 753 mmHg 69%
07:00 +15°C° 0 mm 2 mps 753 mmHg 65%
08:00 +17°C° 0 mm 2 mps 754 mmHg 60%
09:00 +19°C° 0 mm 2 mps 753 mmHg 56%
10:00 +20°C° 0 mm 2 mps 753 mmHg 52%
11:00 +21°C° 0 mm 3 mps 753 mmHg 47%
12:00 +22°C° 0 mm 3 mps 753 mmHg 46%
13:00 +22°C° 0 mm 3 mps 753 mmHg 44%
14:00 +23°C° 0 mm 4 mps 753 mmHg 43%
15:00 +22°C° 0 mm 3 mps 753 mmHg 44%
16:00 +22°C° 0 mm 3 mps 753 mmHg 46%
17:00 +22°C° 0 mm 3 mps 752 mmHg 48%
18:00 +20°C° 0 mm 3 mps 753 mmHg 55%
19:00 +19°C° 0 mm 2 mps 753 mmHg 62%
20:00 +17°C° 0 mm 2 mps 753 mmHg 69%
21:00 +16°C° 0 mm 2 mps 753 mmHg 70%
22:00 +15°C° 0 mm 2 mps 753 mmHg 72%
23:00 +14°C° 0 mm 2 mps 753 mmHg 73%

16 July, Thursday

Time Temperature Precipitation Wind Pressure Humidity
00:00 +13°C° 0 mm 1 mps 753 mmHg 76%
01:00 +13°C° 0 mm 1 mps 753 mmHg 78%
02:00 +12°C° 0 mm 1 mps 753 mmHg 80%
03:00 +12°C° 0 mm 1 mps 753 mmHg 80%
04:00 +12°C° 0 mm 1 mps 753 mmHg 80%
05:00 +13°C° 0 mm 1 mps 753 mmHg 80%
06:00 +15°C° 0 mm 2 mps 753 mmHg 74%
07:00 +17°C° 0 mm 2 mps 754 mmHg 67%
08:00 +19°C° 0 mm 2 mps 754 mmHg 60%
09:00 +20°C° 0 mm 2 mps 753 mmHg 56%
10:00 +21°C° 0 mm 2 mps 753 mmHg 52%
11:00 +24°C° 0 mm 3 mps 753 mmHg 48%
12:00 +24°C° 0 mm 3 mps 753 mmHg 47%
13:00 +24°C° 0 mm 3 mps 753 mmHg 46%
14:00 +25°C° 0 mm 3 mps 753 mmHg 45%
15:00 +25°C° 0 mm 4 mps 753 mmHg 47%
16:00 +23°C° 0 mm 4 mps 753 mmHg 49%
17:00 +23°C° 0 mm 4 mps 753 mmHg 51%
18:00 +21°C° 0 mm 3 mps 753 mmHg 57%
19:00 +20°C° 0 mm 3 mps 753 mmHg 64%
20:00 +18°C° 0 mm 3 mps 753 mmHg 70%
21:00 +17°C° 0 mm 3 mps 754 mmHg 74%
22:00 +15°C° 0 mm 2 mps 754 mmHg 78%
23:00 +14°C° 0 mm 2 mps 754 mmHg 81%

17 July, Friday

Time Temperature Precipitation Wind Pressure Humidity
00:00 +14°C° 0 mm 2 mps 754 mmHg 85%
01:00 +13°C° 0 mm 2 mps 754 mmHg 88%
02:00 +12°C° 0 mm 2 mps 754 mmHg 92%
03:00 +12°C° 0 mm 2 mps 754 mmHg 92%
04:00 +13°C° 0 mm 2 mps 754 mmHg 92%
05:00 +13°C° 0 mm 2 mps 754 mmHg 91%
06:00 +15°C° 0 mm 2 mps 754 mmHg 84%
07:00 +17°C° 0 mm 2 mps 755 mmHg 76%
08:00 +19°C° 0 mm 2 mps 755 mmHg 68%
09:00 +20°C° 0 mm 2 mps 755 mmHg 61%
10:00 +21°C° 0 mm 2 mps 755 mmHg 54%
11:00 +23°C° 0 mm 2 mps 755 mmHg 46%
12:00 +24°C° 0 mm 2 mps 755 mmHg 45%
13:00 +24°C° 0 mm 3 mps 755 mmHg 43%
14:00 +25°C° 0 mm 3 mps 755 mmHg 42%
15:00 +25°C° 0 mm 3 mps 755 mmHg 43%
16:00 +24°C° 0 mm 3 mps 755 mmHg 45%
17:00 +24°C° 0 mm 3 mps 755 mmHg 46%
18:00 +21°C° 0 mm 3 mps 755 mmHg 53%
19:00 +20°C° 0 mm 3 mps 755 mmHg 60%
20:00 +18°C° 0 mm 2 mps 755 mmHg 66%
21:00 +17°C° 0 mm 2 mps 755 mmHg 69%
22:00 +16°C° 0 mm 2 mps 756 mmHg 72%
23:00 +14°C° 0 mm 2 mps 756 mmHg 74%

18 July, Saturday

Time Temperature Precipitation Wind Pressure Humidity
00:00 +14°C° 0 mm 2 mps 756 mmHg 74%
01:00 +13°C° 0 mm 2 mps 757 mmHg 74%
02:00 +12°C° 0 mm 1 mps 757 mmHg 73%
03:00 +12°C° 0 mm 1 mps 757 mmHg 74%
04:00 +12°C° 0 mm 1 mps 757 mmHg 75%
05:00 +11°C° 0 mm 1 mps 757 mmHg 76%
06:00 +13°C° 0 mm 1 mps 757 mmHg 70%
07:00 +15°C° 0 mm 1 mps 757 mmHg 65%
08:00 +18°C° 0 mm 1 mps 758 mmHg 59%
09:00 +19°C° 0 mm 2 mps 758 mmHg 55%
10:00 +21°C° 0 mm 2 mps 758 mmHg 51%
11:00 +23°C° 0 mm 2 mps 758 mmHg 46%
12:00 +24°C° 0 mm 2 mps 758 mmHg 43%
13:00 +25°C° 0 mm 2 mps 758 mmHg 40%
14:00 +26°C° 0 mm 2 mps 757 mmHg 37%
15:00 +25°C° 0 mm 2 mps 757 mmHg 38%
16:00 +25°C° 0 mm 2 mps 757 mmHg 39%
17:00 +25°C° 0 mm 2 mps 757 mmHg 40%
18:00 +23°C° 0 mm 2 mps 757 mmHg 49%
19:00 +21°C° 0 mm 1 mps 757 mmHg 58%
20:00 +19°C° 0 mm 1 mps 758 mmHg 67%
21:00 +18°C° 0 mm 1 mps 758 mmHg 69%
22:00 +15°C° 0 mm 1 mps 758 mmHg 71%
23:00 +14°C° 0 mm 1 mps 758 mmHg 73%
Show more